Regional Weather Roundup
Issued by NWS Tiyan, Guam

Home | Current Version | Previous Version | Text Only | Print | Product List | Glossary On
Versions: 1 2 3 4 5 6 7 8 9 10 11 12 13 14 15 16 17 18 19 20 21 22 23 24 25 26 27 28 29 30 31 32 33 34 35 36 37 38 39 40 41 42 43 44 45 46 47 48 49 50
000
ASGM40 PGUM 192212
RWRGUM
WEATHER ROUNDUP FOR THE MARIANAS
NATIONAL WEATHER SERVICE TIYAN GU
800 AM CHST SAT SEP 20 2014

GUZ001>004-192300-
MARIANA ISLANDS-

CITY           SKY/WX    TMP DP  RH WIND       PRES   REMARKS
GUAM AIRPORT   MOSUNNY   82  75  78 NE9       29.85R
ANDERSEN AFB   SUNNY     82  77  83 E9        29.86R HX  91
ROTA AIRPORT   PTSUNNY   82  79  89 E8        29.85R HX  93
TINIAN AP      PTSUNNY   84  79  84 NE10      29.83R HX  96
SAIPAN AP      MOSUNNY   84  79  84 E14       29.84R HX  96

$$



USA.gov is the U.S. government's official web portal to all federal, state and local government web resources and services.